San Diego Classic - Holiday Cup - Race 4 - Super Bird - 361 Miles

Station: MIAMI AZ - A Race

Distance: 363.658 Miles    

Release: 08-Dec-2018 06:35

Weather Release: Sunny    Arrival: Sunny

Wind at Release: 4 NNW     Wind at Arrival: Calm

Temp at Release: 40°    Temp at Arrival: 66°

Lofts: 101

Birds: 173

Clocked: 114

Good Luck to Everyone!
Drops Pos Breeder Pigeon Name Color Sex Ent Arrival Speed To Win Eligible RaceAvg Speed
6000 1 Mc Knight & Mellinger - CA 1231-AU18-JEDD BBSP H 1 14:01:09.90 1434.532 00:00:00 Yes
6000 2 Hawaiian Express - CA 0015-AU18-HE BCWF H 1 14:01:27.10 1433.611 00:00:17 Yes
6000 3 Kolvenbag & Son - PA 1251-IF18-KOLV BC H 1 14:01:27.90 1433.568 00:00:18 Yes
4 ---------drop--------- - 0001-AU18-ONE H 1 14:03:09.10 1428.173 00:01:59 DROP
663 5 English Syndicate - UK 27615-GB18-GBE BB H 1 14:03:16.70 1427.769 00:02:07 Yes
663 6 Sandstrom Brothers Loft - MN 0409-AU18-GJC BB H 1 14:03:20.60 1427.562 00:02:11 Yes
663 7 Dan And Greg Coury - AZ 1541-AU18-DUTC 1152x871 BB H 1 14:03:21.10 1427.536 00:02:11 Yes
663 8 Nemelka Racing Pigeon Loft - UT 8112-AU18-NRPL God of War x Josephine 2 BB C 1 14:03:30.00 1427.064 00:02:20 Yes
663 9 Utaz Team - UT 0468-AU18-SLI 933x913 BB H 1 14:03:36.50 1426.719 00:02:27 Yes
663 10 Jalisco - CA 2004-AU18-JALI BB H 1 14:03:41.00 1426.481 00:02:31 Yes
663 11 Duane Gragg - CA 0815-AU18-KEYH BBSP H 1 14:03:52.60 1425.866 00:02:43 Yes
663 12 Nemeth Family Loft - CA 0846-AU18-BON DC H 1 14:03:57.90 1425.586 00:02:48 Yes
663 13 Duane Gragg - CA 0807-AU18-KEYH BC H 2 14:03:59.70 1425.490 00:02:50 Yes
663 14 Carney & Hassan - CT 0911-IF18-CC BC H 1 14:04:00.20 1425.464 00:02:50 Yes
663 15 John Karnofel - CA 0885-AU18-KFL Ms Honeybee BB H 1 14:04:04.70 1425.226 00:02:55 Yes
663 16 Franco's - CA 37160-AU18-JEDD BCWF H 1 14:04:09.80 1424.956 00:03:00 Yes
663 17 Rick Barker - CA 0229-AU18-VIP BBWF H 1 14:04:25.80 1424.111 00:03:16 Yes
663 18 Reid Racing Pigeons - CA 3183-AU18-HP RC H 1 14:04:29.30 1423.926 00:03:19 Yes
19 ---------drop--------- - 0002-AU18-TWO H 2 14:04:38.40 1423.446 00:03:28 DROP
20 Tim Brandon - CA 0449-AU18-OCF BC H 1 14:07:05.80 1415.711 00:05:56 Yes
21 Arrowhead Loft - CA 1456-AU18-SD BBWF H 1 14:07:13.20 1415.325 00:06:03 Yes
22 John Hedderson - CA 0800-AU18-HEDD 6855x6853 BC H 1 14:07:14.40 1415.262 00:06:04 Yes
23 Tim Brandon - CA 0358-AU18-LAP BB H 2 14:07:21.00 1414.918 00:06:11 Yes
24 Martha & Darwin Stork - CA 0127-AU18-Y2K BC H 1 14:08:32.40 1411.205 00:07:23 Yes
25 Dan And Greg Coury - AZ 0201-AU18-DUTC 328x3550 BB H 2 14:08:44.90 1410.557 00:07:35 Yes
26 Flying D Loft - TX 0713-AU18-FLYD BB H 1 14:08:49.40 1410.324 00:07:40 Lost
27 Two-Be-Won - NV 18012-AU18-TBW 15006-15007 BB H 1 14:08:51.30 1410.226 00:07:41 Yes
28 Christian & Adam Gluck - CA 3734-AU18-COM BB H 1 14:08:55.90 1409.988 00:07:46 Yes
29 Transilvania Loft - NV 0020-AU18-CFL BC H 1 14:08:58.90 1409.832 00:07:49 Yes
30 Mc Knight & Mellinger - CA 0795-AU18-JEDD BB H 2 14:11:49.20 1401.073 00:10:39 Yes
31 Quest Syndicate - TX 18055-AU18-QS BB H 1 14:14:06.40 1394.095 00:12:56 Yes
32 Quest Syndicate - TX 18065-AU18-QS BB H 2 14:14:07.20 1394.054 00:12:57 Yes
33 De La O-Lopez-Saenz - CA 0098-AU18-TCH BB H 1 14:14:07.50 1394.039 00:12:58 Yes
34 De La O-Lopez-Saenz - CA 0347-AU18-TCH BB H 2 14:14:07.90 1394.019 00:12:58 Yes
35 A P C Loft - TX 18257-AU18-APC BB H 1 14:14:09.00 1393.963 00:12:59 Yes
36 De La O-Lopez-Saenz - CA 2126-AU18-TCH BB H 3 14:14:10.70 1393.877 00:13:01 Yes
37 3s Lofts - CA 0321-AU18-VIP BB H 1 14:15:00.20 1391.377 00:13:50 Yes
38 Kolvenbag & Son - PA 1275-IF18-KOLV BC H 2 14:15:01.50 1391.312 00:13:52 Yes
39 Los Banditos - CA 0738-AU18-OAKS BB H 1 14:15:06.10 1391.080 00:13:56 Yes
40 El Dorado Lofts Canada - BC 11621-CU18-CRPU BCWF H 1 14:15:07.10 1391.029 00:13:57 Yes
41 Tim Brandon - CA 0433-AU18-OCF DCSP H 3 14:15:10.20 1390.873 00:14:00 Yes
42 Pairan Racing Loft - OH 0106-AU18-GUYS BB H 1 14:15:22.60 1390.249 00:14:13 Yes
43 Team Omaha - NE 0370-AU18-CAR BB H 1 14:15:29.60 1389.897 00:14:20 Yes
44 Irma & Gene & Eddie - CA 0510-AU18-VIP BBSP H 1 14:15:41.60 1389.293 00:14:32 Yes
45 Carney & Hassan - CT 0910-IF18-CC BC H 2 14:15:43.50 1389.198 00:14:34 Yes
46 Irma & Gene & Eddie - CA 0526-AU18-GEN BBWF H 2 14:15:48.00 1388.972 00:14:38 Yes
47 Steve Lance - CA 6222-AU18-COM BB H 1 14:20:09.50 1375.957 00:19:00 Yes
48 C & D Loft - CA 0982-AU18-PAL BC H 1 14:20:10.50 1375.908 00:19:01 Yes
49 George Macaluso - CA 19332-AU18-JEDD SIL H 1 14:20:11.00 1375.884 00:19:01 Yes
50 Mc Knight & Mellinger - CA 1202-AU18-JEDD BB H 3 14:20:24.40 1375.223 00:19:15 Yes
51 Irish Syndicate - AZ 0215-IF18-IS BB H 1 14:21:24.20 1372.285 00:20:14 Yes
52 Dehesa Valley Lofts - CA 18120-AU18-MODU BB H 1 14:21:32.40 1371.883 00:20:22 Yes
53 Two-Be-Won - NV 18097-AU18-TBW 13062-11154 BB H 2 14:21:35.40 1371.736 00:20:25 Yes
54 Utaz Team - UT 0198-AU18-PSC 3068-1009 BC H 2 14:21:51.10 1370.967 00:20:41 Yes
55 New Generation Loft - CA 2010-AU18-JALI BBWF H 1 14:32:05.40 1341.546 00:30:55 Yes
56 C P C A Syndicate - AZ 0567-AU18-SLI BB H 1 14:34:25.00 1335.035 00:33:15 Yes
57 Sandstrom Brothers Loft - MN 0386-AU18-GJC BC H 2 14:34:25.30 1335.021 00:33:15 Yes
58 Tim Brandon - CA 0422-AU18-OCF DC H 4 14:35:05.30 1333.167 00:33:55 Yes
59 Team Omaha - NE 0173-AU18-WARR BB H 2 14:39:58.10 1319.752 00:38:48 Yes
60 Barry Venn - WY 18257-AU18-VENN BCSP H 1 14:42:52.00 1311.912 00:41:42 Yes
61 C & D Loft - CA 0970-AU18-PAL BB H 2 14:43:55.30 1309.081 00:42:45 Yes
62 C & D Loft - CA 0963-AU18-PAL BB H 3 14:51:28.10 1289.182 00:50:18 Yes
63 Hawaiian Express - CA 0096-AU18-HE BB H 2 14:53:17.70 1284.456 00:52:08 Yes
64 Sandstrom Brothers Loft - MN 0952-AU18-SBL DCPD H 3 14:53:18.30 1284.430 00:52:08 Yes
65 Team Omaha - NE 0169-AU18-WARR BC H 3 15:03:45.80 1258.027 01:02:36 Yes
66 Pacos Lofts - CA 0870-AU18-PACO DK H 1 15:09:51.90 1243.118 01:08:42 Yes
67 Alma Missiles Castro - AZ 9224-AU18-MISS BCSP H 1 15:09:55.70 1242.965 01:08:46 Yes
68 Four For More 2 - CA 1829-AU18-C7 BB H 1 15:15:05.80 1230.614 01:13:56 Yes
69 El Dorado Lofts Canada - BC 11633-CU18-CRPU BCSP H 2 15:15:09.90 1230.452 01:14:00 Yes
70 Steve Lance - CA 6221-AU18-COM BB H 2 15:15:14.30 1230.279 01:14:04 Yes
71 Missiles Castro - AZ 0724-AU18-MISS BBSP H 1 15:16:49.70 1226.530 01:15:40 Yes
72 Irish Syndicate - AZ 0218-IF18-IS DC H 2 15:17:24.50 1225.168 01:16:15 Yes
73 Lillie & Cecil - CA 1882-AU18-WEBE Labios Compartidos BC C 1 15:24:24.90 1208.953 01:23:15 Yes
74 Alan Taylor - UT 0635-AU18-UVI BB H 1 15:25:09.90 1207.243 01:24:00 Yes
75 English Syndicate - UK 18071-AU18-MET DC H 2 15:26:31.20 1204.166 01:25:21 Yes
76 Carlton Kroese-Crazy Al - CO 5311-AU18-CRAZ BB H 1 15:27:18.20 1202.394 01:26:08 Yes
77 Dave Shewmaker - CA 8149-AU18-SHEW BB H 1 15:27:26.30 1202.089 01:26:16 Yes
78 A P C Loft - TX 18262-AU18-APC DCWF H 2 15:29:27.50 1197.545 01:28:18 Yes
79 Utaz Team - UT 1328-AU18-DUTC 6476-157 BB H 3 15:38:34.10 1177.475 01:37:24 Yes
80 John Karnofel - CA 0884-AU18-KFL Ms Dixie BB H 2 15:45:03.80 1163.572 01:43:54 Yes
81 Hi-Cal Connection - CA 0727-AU18-HICA BB H 1 16:03:13.80 1126.372 02:02:04 Yes
82 Carney & Hassan - CT 0723-AU18-7FL BB H 3 16:06:11.40 1120.534 02:05:02 Yes
83 J & M Partridge Loft - CA 1162-AU18-PASO BB H 1 16:08:11.60 1116.618 02:07:02 Yes
84 George Macaluso - CA 19333-AU18-JEDD BB H 2 16:12:47.50 1107.732 02:11:38 Yes
85 Avitron Loft - CA 1505-AU18-SD DC H 1 17:51:26.40 1004.375 03:11:05 Yes
86 Van-Robins - CA 0808-AU18-OCF BC H 1 2018-12-09 06:52:22.60 941.219 03:53:51 Yes
87 Mcconnell Loft - FL 10132-AU18-GHC BB H 1 2018-12-09 07:22:45.30 900.969 04:24:13 Yes
88 Desert Rose Loft - NV 4883-AU18-JEDD BB H 1 2018-12-09 07:30:10.30 891.660 04:31:38 Yes
89 Van-Robins - CA 0807-AU18-OCF BC H 2 2018-12-09 07:53:05.50 864.070 04:54:34 Yes
90 New Generation Loft - CA 2024-AU18-JALI BB H 2 2018-12-09 07:55:13.00 861.598 04:56:41 Yes
91 Nemelka Racing Pigeon Loft - UT 8128-AU18-NRPL deBelsar2 x Splendiferous BB C 2 2018-12-09 08:00:51.40 855.106 05:02:19 Yes
92 Team Omaha - NE 0379-AU18-CAR BBSP H 4 2018-12-09 08:00:52.90 855.077 05:02:21 Yes
93 Manzo Loft - CA 0070-AU18-FVC BB H 1 2018-12-09 08:05:13.00 850.154 05:06:41 Yes
94 Bill Dozier & Kincaid Light - TX 0097-AU18-TEX BCWF H 1 2018-12-09 08:07:35.50 847.480 05:09:04 Yes
95 Sandstrom Brothers Loft - MN 0957-AU18-SBL BCPD H 4 2018-12-09 08:30:11.00 822.865 05:31:39 Yes
96 Hawaiian Express - CA 0100-AU18-HE BB H 3 2018-12-09 08:58:50.30 793.627 06:00:18 Yes
97 Los Banditos - CA 0752-AU18-OAKS BC H 2 2018-12-09 09:17:00.20 776.146 06:18:28 Yes
98 Nemelka Racing Pigeon Loft - UT 8116-AU18-NRPL Crazy Train x Super 1106 BB H 3 2018-12-09 09:19:07.90 774.148 06:20:36 Yes
99 Desert Rose Loft - NV 4869-AU18-JEDD BB H 2 2018-12-09 09:32:56.70 761.426 06:34:25 Yes
100 Lamp Post Loft - CA 18076-AU18-JEDD BBSP H 1 2018-12-09 09:36:46.50 757.972 06:38:15 Yes

There are 174 bird records

Note: These Race Results are unofficial and subject to change until verified by the Race Committee and declared final.